Princeton, MN

12:19 PM CDT on April 22, 2018 (GMT -0500)
Princeton Municipal

Weather History for KPNM - March, 2014

Change the Weather History Date:

Tuesday, March 4, 2014

  Actual Average Record
Temperature  
Mean Temperature 10 °F -  
Max Temperature 15 °F 28 °F 44 °F (2017)
Min Temperature 6 °F 11 °F -7 °F (2015)
Degree Days  
Heating Degree Days 54    
Moisture  
Dew Point 3 °F    
Average Humidity 71    
Maximum Humidity 85    
Minimum Humidity 58    
Precipitation  
Precipitation 0.00 in - - ()
Sea Level Pressure  
Sea Level Pressure 30.20 in    
Wind  
Wind Speed 3 mph (NE)    
Max Wind Speed 9 mph    
Max Gust Speed -    
Visibility 9 miles    
Events Snow    
Averages and records for this station are not official NWS values.
T = Trace of Precipitation, MM = Missing Value Source: NWS Daily Summary

Daily Weather History Graph

Daily Weather History Graph

Search for Another Location

Airport or City:

Astronomy

Mar. 04, 2014 Rise Set
Actual Time 6:47 AM CST 6:05 PM CST
Civil Twilight 6:17 AM CST 6:35 PM CST
Nautical Twilight 5:43 AM CST 7:09 PM CST
Astronomical Twilight 5:09 AM CST 7:44 PM CST
Moon 8:21 AM CST (3/4) 10:27 PM CST (3/4)
Length of Visible Light 12h 17m
Length of Day
11h 18m
Waxing Crescent, 15% of the Moon is Illuminated
Mar 4
Waxing Crescent
Mar 8
First Quarter
Mar 16
Full
Mar 23
Last Quarter
Mar 30
New

Hourly Weather History & Observations

Time (CST) Temp. Windchill Dew Point Humidity Pressure Visibility Wind Dir Wind Speed Gust Speed Precip Events Conditions
12:13 AM 8.6 °F 2.0 °F 1.4 °F 73% 30.21 in 10.0 mi SE 3.5 mph - N/A   Overcast
12:33 AM 6.8 °F - 3.2 °F 85% 30.21 in 2.0 mi Calm Calm - N/A Snow Light Snow
12:53 AM 6.8 °F - 1.4 °F 79% 30.20 in 2.0 mi Calm Calm - N/A Snow Light Snow
1:13 AM 6.8 °F -0.1 °F 1.4 °F 79% 30.19 in 2.5 mi ESE 3.5 mph - N/A Snow Light Snow
1:33 AM 6.8 °F - 3.2 °F 85% 30.19 in 1.8 mi Calm Calm - N/A Snow Light Snow
1:53 AM 6.8 °F - 3.2 °F 85% 30.19 in 2.0 mi Calm Calm - N/A Snow Light Snow
2:13 AM 6.8 °F - 3.2 °F 85% 30.18 in 4.0 mi Calm Calm - N/A Snow Light Snow
2:33 AM 6.8 °F -0.1 °F 1.4 °F 79% 30.18 in 10.0 mi East 3.5 mph - N/A   Overcast
2:53 AM 6.8 °F - 1.4 °F 79% 30.18 in 7.0 mi Calm Calm - N/A Snow Light Snow
3:13 AM 6.8 °F - 1.4 °F 79% 30.18 in 5.0 mi Calm Calm - N/A Snow Light Snow
3:34 AM 6.8 °F - 1.4 °F 79% 30.17 in 5.0 mi Calm Calm - N/A Snow Light Snow
3:53 AM 6.8 °F -0.1 °F 1.4 °F 79% 30.16 in 7.0 mi East 3.5 mph - N/A Snow Light Snow
4:13 AM 6.8 °F - 1.4 °F 79% 30.16 in 7.0 mi Calm Calm - N/A Snow Light Snow
4:33 AM 6.8 °F -0.1 °F 1.4 °F 79% 30.16 in 5.0 mi East 3.5 mph - N/A Snow Light Snow
4:53 AM 6.8 °F - 1.4 °F 79% 30.16 in 10.0 mi Calm Calm - N/A   Overcast
5:13 AM 6.8 °F - 1.4 °F 79% 30.16 in 7.0 mi Calm Calm - N/A Snow Light Snow
5:33 AM 6.8 °F - 1.4 °F 79% 30.17 in 7.0 mi Calm Calm - N/A Snow Light Snow
5:53 AM 6.8 °F - 1.4 °F 79% 30.17 in 7.0 mi Calm Calm - N/A Snow Light Snow
6:13 AM 6.8 °F -0.1 °F 1.4 °F 79% 30.16 in 7.0 mi NE 3.5 mph - N/A Snow Light Snow
6:33 AM 6.8 °F -0.1 °F 3.2 °F 85% 30.17 in 7.0 mi NE 3.5 mph - N/A Snow Light Snow
6:53 AM 6.8 °F - 1.4 °F 79% 30.17 in 10.0 mi Calm Calm - N/A Snow Light Snow
7:13 AM 6.8 °F -0.1 °F 1.4 °F 79% 30.17 in 10.0 mi NE 3.5 mph - N/A   Overcast
7:33 AM 6.8 °F - 1.4 °F 79% 30.17 in 10.0 mi Calm Calm - N/A   Overcast
7:53 AM 8.6 °F 0.1 °F 3.2 °F 79% 30.17 in 10.0 mi NE 4.6 mph - N/A   Overcast
8:13 AM 8.6 °F 2.0 °F 3.2 °F 79% 30.17 in 10.0 mi ENE 3.5 mph - N/A   Overcast
8:33 AM 8.6 °F 2.0 °F 3.2 °F 79% 30.18 in 10.0 mi NE 3.5 mph - N/A   Overcast
8:53 AM 8.6 °F 0.1 °F 3.2 °F 79% 30.18 in 10.0 mi NE 4.6 mph - N/A   Overcast
9:13 AM 8.6 °F 0.1 °F 1.4 °F 73% 30.19 in 10.0 mi NE 4.6 mph - N/A   Overcast
9:33 AM 10.4 °F 0.8 °F 1.4 °F 67% 30.19 in 7.0 mi NE 5.8 mph - N/A Snow Light Snow
9:53 AM 10.4 °F 0.8 °F 1.4 °F 67% 30.18 in 7.0 mi ENE 5.8 mph - N/A Snow Light Snow
10:13 AM 10.4 °F 4.0 °F 3.2 °F 73% 30.19 in 10.0 mi NNE 3.5 mph - N/A   Overcast
10:33 AM 10.4 °F 2.2 °F 3.2 °F 73% 30.20 in 10.0 mi NE 4.6 mph - N/A Snow Light Snow
10:53 AM 12.2 °F 2.9 °F 3.2 °F 67% 30.18 in 10.0 mi ENE 5.8 mph - N/A   Overcast
11:13 AM 12.2 °F 1.7 °F 3.2 °F 67% 30.19 in 10.0 mi NNE 6.9 mph - N/A Snow Light Snow
11:33 AM 12.2 °F 1.7 °F 3.2 °F 67% 30.18 in 10.0 mi NE 6.9 mph - N/A   Overcast
11:53 AM 12.2 °F 4.3 °F 3.2 °F 67% 30.19 in 10.0 mi NE 4.6 mph - N/A   Overcast
12:13 PM 12.2 °F 4.3 °F 3.2 °F 67% 30.19 in 10.0 mi North 4.6 mph - N/A   Overcast
12:33 PM 14.0 °F 6.5 °F 3.2 °F 62% 30.18 in 10.0 mi ENE 4.6 mph - N/A   Overcast
12:53 PM 15.8 °F 5.1 °F 3.2 °F 58% 30.18 in 10.0 mi NE 8.1 mph - N/A   Overcast
1:13 PM 15.8 °F 6.1 °F 3.2 °F 58% 30.18 in 10.0 mi NE 6.9 mph - N/A   Overcast
1:33 PM 15.8 °F 5.1 °F 3.2 °F 58% 30.17 in 10.0 mi North 8.1 mph - N/A   Overcast
1:53 PM 15.8 °F 4.2 °F 5.0 °F 62% 30.17 in 10.0 mi NNE 9.2 mph - N/A   Overcast
2:13 PM 15.8 °F 5.1 °F 5.0 °F 62% 30.16 in 10.0 mi NE 8.1 mph - N/A   Mostly Cloudy
2:33 PM 15.8 °F 5.1 °F 3.2 °F 58% 30.16 in 10.0 mi NNE 8.1 mph - N/A   Scattered Clouds
2:54 PM 15.8 °F 5.1 °F 5.0 °F 62% 30.17 in 10.0 mi NE 8.1 mph - N/A   Overcast
3:13 PM 15.8 °F 7.2 °F 3.2 °F 58% 30.18 in 10.0 mi NNE 5.8 mph - N/A   Overcast
3:33 PM 15.8 °F 6.1 °F 3.2 °F 58% 30.17 in 10.0 mi NE 6.9 mph - N/A   Mostly Cloudy
3:53 PM 15.8 °F 5.1 °F 3.2 °F 58% 30.18 in 10.0 mi ENE 8.1 mph - N/A   Scattered Clouds
4:13 PM 15.8 °F 6.1 °F 3.2 °F 58% 30.18 in 10.0 mi NE 6.9 mph - N/A   Scattered Clouds
4:33 PM 15.8 °F 6.1 °F 3.2 °F 58% 30.18 in 10.0 mi NNE 6.9 mph - N/A   Clear
4:53 PM 15.8 °F 7.2 °F 3.2 °F 58% 30.18 in 10.0 mi NE 5.8 mph - N/A   Clear
5:13 PM 15.8 °F 8.6 °F 3.2 °F 58% 30.19 in 10.0 mi ENE 4.6 mph - N/A   Clear
5:33 PM 15.8 °F - 3.2 °F 58% 30.20 in 10.0 mi Calm Calm - N/A   Clear
5:53 PM 15.8 °F - 3.2 °F 58% 30.21 in 10.0 mi Calm Calm - N/A   Clear
6:13 PM 15.8 °F - 3.2 °F 58% 30.21 in 10.0 mi Calm Calm - N/A   Clear
6:33 PM 15.8 °F - 3.2 °F 58% 30.22 in 10.0 mi Calm Calm - N/A   Clear
6:53 PM 12.2 °F - 5.0 °F 73% 30.22 in 10.0 mi Calm Calm - N/A   Clear
7:13 PM 12.2 °F - 5.0 °F 73% 30.22 in 10.0 mi Calm Calm - N/A   Clear
7:33 PM 12.2 °F - 3.2 °F 67% 30.23 in 10.0 mi Calm Calm - N/A   Clear
7:53 PM 10.4 °F - 3.2 °F 73% 30.24 in 10.0 mi Calm Calm - N/A   Clear
8:13 PM 8.6 °F - 3.2 °F 79% 30.25 in 10.0 mi Calm Calm - N/A   Clear
8:33 PM 8.6 °F - 3.2 °F 79% 30.25 in 10.0 mi Calm Calm - N/A   Clear
8:53 PM 10.4 °F - 3.2 °F 73% 30.26 in 10.0 mi Calm Calm - N/A   Clear
9:13 PM 10.4 °F 2.2 °F 3.2 °F 73% 30.26 in 10.0 mi North 4.6 mph - N/A   Clear
9:34 PM 12.2 °F 4.3 °F 3.2 °F 67% 30.27 in 10.0 mi North 4.6 mph - N/A   Clear
9:53 PM 12.2 °F 4.3 °F 3.2 °F 67% 30.27 in 10.0 mi North 4.6 mph - N/A   Clear
10:13 PM 12.2 °F 4.3 °F 3.2 °F 67% 30.27 in 10.0 mi North 4.6 mph - N/A   Clear
10:34 PM 12.2 °F 6.1 °F 3.2 °F 67% 30.27 in 10.0 mi North 3.5 mph - N/A   Clear
10:53 PM 12.2 °F - 3.2 °F 67% 30.29 in 10.0 mi Calm Calm - N/A   Clear
11:13 PM 10.4 °F 4.0 °F 3.2 °F 73% 30.29 in 10.0 mi North 3.5 mph - N/A   Clear
11:34 PM 12.2 °F 4.3 °F 3.2 °F 67% 30.28 in 10.0 mi NNE 4.6 mph - N/A   Clear
11:53 PM 12.2 °F 6.1 °F 3.2 °F 67% 30.29 in 10.0 mi North 3.5 mph - N/A   Clear